Mojave, CA

4:17 AM PST on November 17, 2019 (GMT -0800)
Mojave

Weather History for KMHV - June, 2019

Change the Weather History Date:

Tuesday, June 11, 2019

  Actual Average Record
Temperature  
Mean Temperature 83 °F -  
Max Temperature 98 °F 85 °F 102 °F (1985)
Min Temperature 68 °F 61 °F 50 °F (1972)
Cooling Degree Days 18    
Growing Degree Days 33 (Base 50)    
Moisture  
Dew Point 41 °F    
Average Humidity 23    
Maximum Humidity 38    
Minimum Humidity 11    
Precipitation  
Precipitation 0.00 in - - ()
Sea Level Pressure  
Sea Level Pressure 30.11 in    
Wind  
Wind Speed 6 mph (West)    
Max Wind Speed 18 mph    
Max Gust Speed 24 mph    
Visibility 10 miles    
Events      
Averages and records for this station are not official NWS values.
T = Trace of Precipitation, MM = Missing Value Source: NWS Daily Summary

Daily Weather History Graph

Daily Weather History Graph

Search for Another Location

Airport or City:

Astronomy

Jun. 11, 2019 Rise Set
Actual Time 5:37 AM PDT 8:06 PM PDT
Civil Twilight 5:08 AM PDT 8:36 PM PDT
Nautical Twilight 4:31 AM PDT 9:12 PM PDT
Astronomical Twilight 3:51 AM PDT 9:53 PM PDT
Moon 2:26 PM PDT (6/11) 2:07 AM PDT (6/11)
Length of Visible Light 15h 28m
Length of Day
14h 28m
Waxing Gibbous, 67% of the Moon is Illuminated
Jun 11
Waxing Gibbous
Jun 17
Full
Jun 25
Last Quarter
Jul 2
New
Jul 9
First Quarter

Hourly Weather History & Observations

Time (PDT) Temp. Dew Point Humidity Pressure Visibility Wind Dir Wind Speed Gust Speed Precip Events Conditions
12:00 AM 75.2 °F 42.8 °F 31% 30.12 in 10.0 mi SW 5.8 mph - N/A   Clear
12:20 AM 73.4 °F 41.0 °F 31% 30.12 in 10.0 mi Calm Calm - N/A   Clear
12:40 AM 73.4 °F 41.0 °F 31% 30.12 in 10.0 mi SW 3.5 mph - N/A   Clear
1:00 AM 75.2 °F 41.0 °F 29% 30.11 in 10.0 mi Calm Calm - N/A   Clear
1:20 AM 75.2 °F 39.2 °F 27% 30.11 in 10.0 mi NNE 4.6 mph - N/A   Clear
1:40 AM 75.2 °F 37.4 °F 25% 30.11 in 10.0 mi North 4.6 mph - N/A   Clear
2:00 AM 77.0 °F 35.6 °F 22% 30.11 in 10.0 mi NNE 5.8 mph - N/A   Clear
2:20 AM 77.0 °F 35.6 °F 22% 30.11 in 10.0 mi NNW 4.6 mph - N/A   Clear
2:40 AM 71.6 °F 37.4 °F 29% 30.11 in 10.0 mi NNW 3.5 mph - N/A   Clear
3:00 AM 69.8 °F 37.4 °F 31% 30.11 in 10.0 mi SW 4.6 mph - N/A   Clear
3:20 AM 69.8 °F 37.4 °F 31% 30.12 in 10.0 mi WSW 6.9 mph - N/A   Clear
3:40 AM 68.0 °F 39.2 °F 35% 30.11 in 10.0 mi WNW 8.1 mph - N/A   Clear
4:00 AM 68.0 °F 39.2 °F 35% 30.12 in 10.0 mi NW 9.2 mph - N/A   Clear
4:20 AM 69.8 °F 37.4 °F 31% 30.12 in 10.0 mi NNW 11.5 mph - N/A   Clear
4:40 AM 68.0 °F 39.2 °F 35% 30.12 in 10.0 mi North 9.2 mph - N/A   Clear
5:00 AM 69.8 °F 39.2 °F 33% 30.12 in 10.0 mi NNW 9.2 mph - N/A   Clear
5:20 AM 71.6 °F 37.4 °F 29% 30.12 in 10.0 mi NNW 9.2 mph - N/A   Clear
5:40 AM 71.6 °F 37.4 °F 29% 30.13 in 10.0 mi NNW 6.9 mph - N/A   Clear
6:00 AM 69.8 °F 39.2 °F 33% 30.14 in 10.0 mi Calm Calm - N/A   Clear
6:20 AM 69.8 °F 39.2 °F 33% 30.15 in 10.0 mi Calm Calm - N/A   Clear
6:40 AM 69.8 °F 41.0 °F 35% 30.14 in 10.0 mi Calm Calm - N/A   Clear
7:00 AM 69.8 °F 42.8 °F 38% 30.15 in 10.0 mi Calm Calm - N/A   Clear
7:20 AM 73.4 °F 41.0 °F 31% 30.15 in 10.0 mi Calm Calm - N/A   Clear
7:40 AM 77.0 °F 41.0 °F 28% 30.16 in 10.0 mi NE 3.5 mph - N/A   Clear
8:00 AM 80.6 °F 39.2 °F 23% 30.16 in 10.0 mi Calm Calm - N/A   Clear
8:20 AM 80.6 °F 39.2 °F 23% 30.16 in 10.0 mi Variable 3.5 mph - N/A   Clear
8:40 AM 82.4 °F 39.2 °F 21% 30.16 in 10.0 mi South 3.5 mph - N/A   Clear
9:00 AM 84.2 °F 39.2 °F 20% 30.17 in 10.0 mi Calm Calm - N/A   Clear
9:20 AM 86.0 °F 37.4 °F 18% 30.17 in 10.0 mi Calm Calm - N/A   Clear
9:40 AM 86.0 °F 39.2 °F 19% 30.16 in 10.0 mi Calm Calm - N/A   Clear
10:00 AM 87.8 °F 37.4 °F 17% 30.16 in 10.0 mi Calm Calm - N/A   Clear
10:20 AM 89.6 °F 37.4 °F 16% 30.16 in 10.0 mi Calm Calm - N/A   Clear
10:40 AM 91.4 °F 35.6 °F 14% 30.15 in - Variable 3.5 mph - N/A   Unknown
11:00 AM 91.4 °F 35.6 °F 14% 30.15 in 10.0 mi Variable 3.5 mph - N/A   Unknown
11:20 AM 93.2 °F 39.2 °F 15% 30.15 in 10.0 mi SSW 9.2 mph - N/A   Clear
11:40 AM 93.2 °F 39.2 °F 15% 30.15 in 10.0 mi Variable 3.5 mph - N/A   Clear
12:00 PM 93.2 °F 42.8 °F 17% 30.14 in 10.0 mi South 10.4 mph - N/A   Clear
12:20 PM 93.2 °F 42.8 °F 17% 30.14 in 10.0 mi Variable 4.6 mph 13.8 mph N/A   Clear
12:40 PM 93.2 °F 42.8 °F 17% 30.13 in 10.0 mi South 10.4 mph - N/A   Clear
1:00 PM 93.2 °F 42.8 °F 17% 30.13 in 10.0 mi SW 12.7 mph - N/A   Clear
1:20 PM 93.2 °F 42.8 °F 17% 30.12 in 10.0 mi SSW 9.2 mph - N/A   Clear
1:40 PM - - N/A% - 10.0 mi North - - N/A   Unknown
2:00 PM 95.0 °F 41.0 °F 15% 30.11 in 10.0 mi West 8.1 mph 15.0 mph N/A   Unknown
2:20 PM 95.0 °F 41.0 °F 15% 30.10 in 10.0 mi SSE 11.5 mph - N/A   Clear
2:40 PM 95.0 °F 41.0 °F 15% 30.10 in 10.0 mi Calm Calm 16.1 mph N/A   Clear
3:00 PM 98.6 °F 41.0 °F 14% 30.09 in 10.0 mi Calm Calm - N/A   Clear
3:20 PM 96.8 °F 39.2 °F 14% 30.08 in 10.0 mi SW 11.5 mph - N/A   Clear
3:40 PM 98.6 °F 39.2 °F 13% 30.07 in 10.0 mi WSW 15.0 mph 20.7 mph N/A   Clear
4:00 PM 98.6 °F 35.6 °F 11% 30.07 in 10.0 mi SSW 17.3 mph - N/A   Clear
4:20 PM 96.8 °F 37.4 °F 13% 30.07 in 10.0 mi SSW 17.3 mph - N/A   Clear
4:40 PM 96.8 °F 37.4 °F 13% 30.06 in 10.0 mi WSW 15.0 mph - N/A   Clear
5:00 PM 98.6 °F 39.2 °F 13% 30.05 in 10.0 mi WSW 17.3 mph 24.2 mph N/A   Clear
5:20 PM 96.8 °F 37.4 °F 13% 30.05 in 10.0 mi SW 12.7 mph 18.4 mph N/A   Clear
5:40 PM 96.8 °F 39.2 °F 14% 30.05 in 10.0 mi West 13.8 mph 23.0 mph N/A   Clear
6:00 PM 95.0 °F 37.4 °F 13% 30.04 in 10.0 mi SW 11.5 mph 19.6 mph N/A   Clear
6:20 PM 93.2 °F 42.8 °F 17% 30.05 in 10.0 mi WSW 18.4 mph - N/A   Unknown
6:40 PM 93.2 °F 46.4 °F 20% 30.05 in 10.0 mi West 13.8 mph - N/A   Clear
7:00 PM 91.4 °F 46.4 °F 21% 30.05 in 10.0 mi WNW 8.1 mph 15.0 mph N/A   Clear
7:20 PM 89.6 °F 48.2 °F 24% 30.06 in 10.0 mi WNW 13.8 mph 20.7 mph N/A   Clear
7:40 PM 87.8 °F 48.2 °F 25% 30.06 in 10.0 mi WNW 12.7 mph - N/A   Clear
8:00 PM 87.8 °F 48.2 °F 25% 30.06 in 10.0 mi WNW 12.7 mph - N/A   Clear
8:20 PM 86.0 °F 48.2 °F 27% 30.06 in 10.0 mi WNW 12.7 mph 18.4 mph N/A   Clear
8:40 PM 86.0 °F 50.0 °F 29% 30.06 in 10.0 mi WNW 11.5 mph 18.4 mph N/A   Clear
9:00 PM 84.2 °F 48.2 °F 29% 30.06 in 10.0 mi West 15.0 mph 20.7 mph N/A   Clear
9:20 PM 84.2 °F 48.2 °F 29% 30.07 in 10.0 mi West 12.7 mph - N/A   Clear
9:40 PM 84.2 °F 46.4 °F 27% 30.07 in 10.0 mi West 13.8 mph - N/A   Clear
10:00 PM 82.4 °F 46.4 °F 28% 30.07 in 10.0 mi WSW 11.5 mph - N/A   Clear
10:20 PM 82.4 °F 44.6 °F 26% 30.08 in 10.0 mi West 13.8 mph - N/A   Clear
10:40 PM 82.4 °F 44.6 °F 26% 30.07 in 10.0 mi West 17.3 mph - N/A   Clear
11:00 PM 82.4 °F 44.6 °F 26% 30.07 in 10.0 mi West 13.8 mph 19.6 mph N/A   Clear
11:20 PM 82.4 °F 42.8 °F 25% 30.07 in 10.0 mi WSW 10.4 mph 18.4 mph N/A   Clear
11:40 PM 80.6 °F 42.8 °F 26% 30.07 in 10.0 mi WSW 11.5 mph - N/A   Clear